Flag for Poland Weather past 2 weeks in Radom, Poland

Now
56 °F

Fog.


Feels Like: 56 °F
Forecast: 54 / 73 °F
Wind: 1 mph from Northeast

Location: Kielce

Current Time: Aug 30, 2014 at 11:04:30 PM

Latest Report: Aug 30, 2014 at 10:00 PM


Visibility: 3 mi

Pressure: 30.06 "Hg

Humidity: 97%

Dew point: 55 °F

Location of RadomLocation

Historic Weather in Radom — Graph

°F

Radom temperature yesterday

Maximum temperature yesterday: 72 °F (at 4:00 PM)
Minimum temperature yesterday: 41 °F (at 6:00 AM)
Average temperature yesterday: 57 °F

Past Weeks' High & Low Weather Summary

 TemperatureHumidityPressure
High74 °F (Aug 18, 2:00 PM)100% (Aug 16, 2:00 AM)30.14 "Hg (Aug 16, 2:00 AM)
Low41 °F (Aug 29, 6:00 AM)42% (Aug 28, 4:00 PM)29.74 "Hg (Aug 26, 3:00 PM)
Average57 °F82%29.96 "Hg
* Reported Aug 15 9:00 PM — Aug 30 9:00 PM, Radom, Weather by CustomWeather, © 2014

Note: Actual official high and low records may vary slightly from our data, if they occured in-between our weather recording intervals... More about our weather records

Advertising

Radom weather history for previous 24 hours

 ConditionsComfort  
Time TempWeatherWind HumidityBarometerVisibility
9:00 PM
Aug 30
57 °FFog.1 mph95%30.05 "Hg5 mi
8:00 PM60 °FPassing clouds.1 mph92%30.03 "Hg9 mi
7:00 PM65 °FScattered clouds.1 mph80%30.02 "Hg16 mi
6:00 PM70 °FPassing clouds.1 mph59%30.02 "Hg25 mi
5:00 PM72 °FScattered clouds.1 mph62%30.03 "Hg22 mi
4:00 PM69 °FPartly sunny.2 mph68%30.03 "Hg19 mi
3:00 PM67 °FOvercast.1 mph84%30.04 "Hg12 mi
2:00 PM65 °FOvercast.1 mph90%30.06 "Hg6 mi
1:00 PM70 °FOvercast.3 mph67%30.04 "Hg17 mi
12:00 PM68 °FOvercast.3 mph73%30.05 "Hg16 mi
11:00 AM67 °FOvercast.3 mph78%30.06 "Hg11 mi
10:00 AM62 °FFog.1 mph89%30.06 "Hg6 mi
9:00 AM59 °FOvercast.1 mph94%30.06 "Hg6 mi
8:00 AM56 °FSprinkles. Overcast.1 mph95%30.07 "Hg4 mi
7:00 AM55 °FLight rain. Overcast.No wind96%30.06 "Hg3 mi
6:00 AM54 °FFog.No wind94%30.06 "Hg5 mi
5:00 AM53 °FFog.1 mph94%30.05 "Hg4 mi
4:00 AM53 °FOvercast.No wind93%30.05 "Hg5 mi
3:00 AM53 °FFog.No wind92%30.06 "Hg5 mi
2:00 AM53 °FFog.1 mph91%30.06 "Hg6 mi
1:00 AM53 °FFog.No wind95%30.07 "Hg4 mi
12:00 AM53 °FFog.No wind93%30.06 "Hg5 mi
11:00 PM
Aug 29
54 °FFog.2 mph90%30.06 "Hg5 mi
Weather by CustomWeather, © 2014

See weather overviewHow to use our weather pages